Flag for Norway Weather past 2 weeks in Kopervik, Norway

Now
46 °F

Broken clouds.


Feels Like: 40 °F
Forecast: 39 / 45 °F
Wind: 16 mph from Southwest

Location: Haugesund / Karmoy

Current Time: Apr 28, 2015 at 4:46:50 PM

Latest Report: Apr 28, 2015 at 3:50 PM


Visibility: N/A

Pressure: 29.77 "Hg

Humidity: 57%

Dew point: 32 °F

Location of KopervikLocation

Historic Weather in Kopervik — Graph

°F

Kopervik temperature yesterday

Maximum temperature yesterday: 48 °F (at 1:20 PM)
Minimum temperature yesterday: 34 °F (at 12:20 AM)
Average temperature yesterday: 41 °F

Past Weeks' High & Low Weather Summary

 TemperatureHumidityPressure
High54 °F (Apr 19, 12:20 PM)100% (Apr 14, 7:50 AM)30.45 "Hg (Apr 14, 7:50 AM)
Low32 °F (Apr 28, 2:50 AM)43% (Apr 27, 1:50 PM)29.27 "Hg (Apr 25, 12:20 PM)
Average44 °F83%29.98 "Hg
* Reported Apr 13 3:20 PM — Apr 28 3:20 PM, Kopervik, Weather by CustomWeather, © 2015

Note: Actual official high and low records may vary slightly from our data, if they occured in-between our weather recording intervals... More about our weather records

Advertising

Kopervik weather history for previous 24 hours

 ConditionsComfort  
Time TempWeatherWind HumidityBarometerVisibility
3:20 PM
Tue, Apr 28
50 °FScattered clouds.9 mph54%29.77 "HgN/A
2:50 PM48 °FScattered clouds.14 mph54%29.77 "HgN/A
2:20 PM46 °FPartly sunny.9 mph62%29.77 "HgN/A
1:50 PM48 °FScattered clouds.14 mph50%29.77 "HgN/A
1:20 PM48 °FPassing clouds.15 mph50%29.77 "HgN/A
12:50 PM46 °FPassing clouds.13 mph53%29.77 "HgN/A
12:20 PM46 °FPassing clouds.14 mph57%29.77 "HgN/A
11:50 AM46 °FScattered clouds.14 mph50%29.77 "HgN/A
11:20 AM45 °FScattered clouds.14 mph57%29.77 "HgN/A
10:50 AM45 °FScattered clouds.14 mph71%29.77 "HgN/A
10:20 AM45 °FScattered clouds.15 mph71%29.77 "HgN/A
9:50 AM43 °FScattered clouds.14 mph76%29.77 "HgN/A
9:20 AM43 °FScattered clouds.15 mph76%29.77 "HgN/A
8:50 AM41 °FScattered clouds.13 mph87%29.77 "HgN/A
8:20 AM41 °FPassing clouds.9 mph87%29.77 "HgN/A
7:50 AM37 °FPassing clouds.9 mph93%29.74 "HgN/A
7:20 AM37 °FPassing clouds.8 mph93%29.74 "HgN/A
6:50 AM36 °FPassing clouds.9 mph93%29.74 "HgN/A
6:20 AM34 °FPassing clouds.10 mph93%29.74 "HgN/A
5:50 AM32 °FPassing clouds.9 mph100%29.74 "HgN/A
5:20 AM34 °FPassing clouds.8 mph93%29.74 "HgN/A
4:50 AM36 °FPassing clouds.8 mph93%29.74 "HgN/A
4:20 AM37 °FOvercast.6 mph87%29.74 "HgN/A
3:50 AM37 °FPartly cloudy.8 mph87%29.74 "HgN/A
3:20 AM37 °FPassing clouds.14 mph93%29.74 "HgN/A
2:50 AM32 °FChilly.No wind93%29.74 "HgN/A
2:20 AM34 °FChilly.No wind93%29.74 "HgN/A
1:50 AM34 °FPassing clouds.2 mph87%29.74 "HgN/A
1:20 AM39 °FChilly.5 mph81%29.74 "HgN/A
12:50 AM39 °FChilly.5 mph81%29.74 "HgN/A
12:20 AM39 °FPassing clouds.5 mph81%29.74 "HgN/A
11:50 PM
Mon, Apr 27
39 °FPassing clouds.7 mph81%29.74 "HgN/A
11:20 PM39 °FChilly.9 mph81%29.71 "HgN/A
10:50 PM39 °FPassing clouds.7 mph81%29.71 "HgN/A
10:20 PM41 °FPartly sunny.9 mph81%29.71 "HgN/A
9:50 PM41 °FBroken clouds.7 mph81%29.71 "HgN/A
9:20 PM41 °FPartly sunny.7 mph81%29.71 "HgN/A
8:50 PM41 °FScattered clouds.9 mph81%29.68 "HgN/A
8:20 PM41 °FPartly sunny.12 mph81%29.68 "HgN/A
7:50 PM43 °FScattered clouds.10 mph71%29.68 "HgN/A
7:20 PM43 °FScattered clouds.13 mph76%29.65 "HgN/A
6:50 PM45 °FScattered showers. Partly sunny.16 mph76%29.65 "HgN/A
6:20 PM45 °FScattered clouds.16 mph76%29.65 "HgN/A
5:50 PM45 °FScattered clouds.17 mph76%29.65 "HgN/A
5:20 PM45 °FScattered clouds.16 mph66%29.62 "HgN/A
4:50 PM46 °FScattered clouds.13 mph57%29.62 "HgN/A
4:20 PM46 °FScattered clouds.13 mph62%29.62 "HgN/A
Weather by CustomWeather, © 2015

See weather overviewHow to use our weather pages